| time (UTC) | temp C | wind direction | speed KPH | gust KPH | rain 1hr cm | rain 24hr cm | rain mn cm | humidity % | barometer mb |
| 20260506044612 | 12 | 201 | 6.4 | 9.7 | 0.00 | 2.13 | 1.80 | 99 | 985.9 |
| 20260506043609 | 12 | 209 | 3.2 | 6.4 | 0.00 | 2.13 | 1.80 | 99 | 985.9 |
| 20260506042605 | 12 | 209 | 4.8 | 6.4 | 0.00 | 2.13 | 1.80 | 99 | 985.8 |
| 20260506041601 | 12 | 244 | 3.2 | 6.4 | 0.00 | 2.13 | 1.80 | 99 | 985.9 |
| 20260506040557 | 12 | 242 | 3.2 | 6.4 | 0.00 | 2.13 | 1.80 | 99 | 985.8 |
| 20260506035553 | 12 | 242 | 3.2 | 6.4 | 0.00 | 2.13 | 1.80 | 99 | 985.8 |
| 20260506034549 | 12 | 210 | 4.8 | 9.7 | 0.00 | 2.13 | 1.80 | 99 | 985.9 |
| 20260506033546 | 12 | 191 | 4.8 | 9.7 | 0.00 | 2.13 | 1.80 | 99 | 986.0 |
| 20260506032542 | 12 | 225 | 4.8 | 9.7 | 0.00 | 2.13 | 1.80 | 99 | 986.0 |
| 20260506031538 | 12 | 209 | 4.8 | 12.9 | 0.00 | 2.13 | 1.80 | 99 | 986.1 |
| 20260506030534 | 12 | 205 | 4.8 | 11.3 | 0.00 | 2.13 | 1.80 | 98 | 986.1 |
| 20260506025531 | 12 | 208 | 6.4 | 11.3 | 0.00 | 2.13 | 1.80 | 98 | 986.3 |
| 20260506024527 | 12 | 145 | 4.8 | 11.3 | 0.00 | 2.13 | 1.80 | 98 | 986.2 |
| 20260506023523 | 12 | 118 | 4.8 | 9.7 | 0.00 | 2.13 | 1.80 | 98 | 986.4 |
| 20260506022519 | 12 | 105 | 4.8 | 6.4 | 0.00 | 2.13 | 1.80 | 98 | 986.4 |
| 20260506021516 | 12 | 110 | 3.2 | 9.7 | 0.00 | 2.13 | 1.80 | 98 | 986.5 |
| 20260506020612 | 12 | 90 | 3.2 | 9.7 | 0.00 | 2.13 | 1.80 | 98 | 986.5 |
| 20260506015608 | 12 | 110 | 4.8 | 6.4 | 0.00 | 2.13 | 1.80 | 98 | 986.7 |
| 20260506014604 | 12 | 155 | 4.8 | 6.4 | 0.00 | 2.13 | 1.80 | 98 | 986.8 |
| 20260506013601 | 12 | 136 | 3.2 | 6.4 | 0.00 | 2.13 | 1.80 | 98 | 986.9 |
| 20260506012557 | 12 | 184 | 1.6 | 3.2 | 0.00 | 2.13 | 1.80 | 97 | 986.9 |
| 20260506011553 | 12 | 203 | 3.2 | 6.4 | 0.00 | 2.13 | 1.80 | 97 | 987.0 |
| 20260506010549 | 12 | 210 | 3.2 | 6.4 | 0.05 | 2.13 | 1.80 | 97 | 986.9 |
| 20260506005545 | 12 | 131 | 1.6 | 6.4 | 0.05 | 2.13 | 1.80 | 97 | 986.7 |
| 20260506004542 | 12 | 60 | 1.6 | 6.4 | 0.10 | 2.13 | 1.80 | 96 | 986.4 |
| 20260506003538 | 12 | 54 | 8.0 | 14.5 | 0.13 | 2.13 | 1.80 | 96 | 986.1 |
| 20260506002534 | 12 | 48 | 12.9 | 22.5 | 0.13 | 2.13 | 1.80 | 96 | 986.0 |
| 20260506001530 | 12 | 42 | 11.3 | 17.7 | 0.15 | 2.13 | 1.80 | 96 | 986.1 |
| 20260506000527 | 12 | 23 | 9.7 | 14.5 | 0.13 | 2.06 | 1.75 | 96 | 986.0 |
| 20260505235523 | 12 | 41 | 11.3 | 20.9 | 0.23 | 2.06 | 1.75 | 96 | 986.9 |
| 20260505234519 | 12 | 43 | 8.0 | 17.7 | 0.94 | 2.03 | 1.70 | 96 | 987.3 |
| 20260505233515 | 12 | 39 | 9.7 | 17.7 | 1.04 | 2.01 | 1.68 | 97 | 987.5 |
| 20260505232612 | 12 | 50 | 8.0 | 12.9 | 1.22 | 2.01 | 1.68 | 97 | 987.7 |
| 20260505231608 | 12 | 34 | 8.0 | 17.7 | 1.35 | 1.98 | 1.65 | 97 | 988.1 |
| 20260505230604 | 12 | 44 | 6.4 | 9.7 | 1.37 | 1.96 | 1.63 | 97 | 988.5 |
| 20260505225600 | 12 | 62 | 3.2 | 6.4 | 1.50 | 1.83 | 1.50 | 97 | 988.6 |
| 20260505224557 | 13 | 182 | 8.0 | 12.9 | 0.97 | 1.12 | 0.79 | 97 | 989.2 |
| 20260505223553 | 12 | 300 | 1.6 | 3.2 | 0.81 | 0.97 | 0.64 | 96 | 988.5 |
| 20260505222549 | 12 | 8 | 1.6 | 6.4 | 0.64 | 0.79 | 0.46 | 96 | 988.0 |
| 20260505221545 | 13 | 44 | 4.8 | 11.3 | 0.48 | 0.64 | 0.30 | 95 | 988.2 |
| 20260505220542 | 13 | 33 | 3.2 | 11.3 | 0.43 | 0.56 | 0.23 | 94 | 988.2 |
| 20260505215538 | 13 | 26 | 8.0 | 12.9 | 0.18 | 0.33 | 0.33 | 93 | 988.3 |
| 20260505214534 | 13 | 28 | 6.4 | 12.9 | 0.00 | 0.15 | 0.15 | 92 | 988.7 |
| 20260505213530 | 13 | 36 | 4.8 | 9.7 | 0.00 | 0.15 | 0.15 | 92 | 988.7 |
| 20260505212529 | 13 | 44 | 3.2 | 6.4 | 0.00 | 0.15 | 0.15 | 92 | 988.7 |
| 20260505211523 | 14 | 32 | 4.8 | 6.4 | 0.00 | 0.15 | 0.15 | 91 | 988.7 |
| 20260505210519 | 14 | 52 | 6.4 | 12.9 | 0.00 | 0.15 | 0.15 | 91 | 988.7 |
| 20260505205515 | 14 | 45 | 4.8 | 12.9 | 0.00 | 0.15 | 0.15 | 91 | 988.3 |
| 20260505204612 | 14 | 36 | 8.0 | 17.7 | 0.00 | 0.15 | 0.15 | 90 | 988.0 |
| 20260505203608 | 14 | 49 | 6.4 | 17.7 | 0.00 | 0.15 | 0.15 | 90 | 987.9 |
| 20260505202604 | 14 | 27 | 6.4 | 12.9 | 0.00 | 0.15 | 0.15 | 90 | 987.9 |
| 20260505201600 | 14 | 45 | 4.8 | 6.4 | 0.00 | 0.15 | 0.15 | 89 | 987.9 |
| 20260505200557 | 15 | 45 | 8.0 | 14.5 | 0.00 | 0.15 | 0.15 | 89 | 987.6 |
| 20260505195553 | 15 | 43 | 8.0 | 17.7 | 0.00 | 0.15 | 0.15 | 88 | 987.7 |
| 20260505194549 | 15 | 33 | 8.0 | 12.9 | 0.00 | 0.15 | 0.15 | 87 | 987.9 |
| 20260505193546 | 15 | 31 | 6.4 | 11.3 | 0.00 | 0.15 | 0.15 | 86 | 988.1 |
| 20260505192542 | 15 | 45 | 8.0 | 17.7 | 0.00 | 0.15 | 0.15 | 85 | 988.0 |
| 20260505191538 | 15 | 56 | 8.0 | 12.9 | 0.00 | 0.15 | 0.15 | 84 | 987.9 |
| 20260505190534 | 15 | 58 | 6.4 | 12.9 | 0.00 | 0.15 | 0.15 | 84 | 988.1 |
| 20260505185530 | 15 | 41 | 4.8 | 9.7 | 0.00 | 0.15 | 0.15 | 83 | 988.1 |
| 20260505184527 | 16 | 33 | 6.4 | 9.7 | 0.00 | 0.15 | 0.15 | 83 | 988.2 |
| 20260505183523 | 16 | 53 | 4.8 | 11.3 | 0.00 | 0.15 | 0.15 | 83 | 988.3 |
| 20260505182519 | 16 | 55 | 3.2 | 9.7 | 0.00 | 0.15 | 0.15 | 83 | 988.3 |
| 20260505181515 | 16 | 52 | 4.8 | 9.7 | 0.00 | 0.15 | 0.15 | 83 | 988.3 |
| 20260505180612 | 16 | 37 | 3.2 | 6.4 | 0.00 | 0.15 | 0.15 | 83 | 988.4 |
| 20260505175608 | 16 | 40 | 4.8 | 9.7 | 0.00 | 0.15 | 0.15 | 82 | 988.3 |
| 20260505174604 | 16 | 33 | 6.4 | 12.9 | 0.00 | 0.15 | 0.15 | 82 | 988.5 |
| 20260505173600 | 16 | 34 | 6.4 | 12.9 | 0.00 | 0.15 | 0.15 | 82 | 988.4 |
| 20260505172556 | 16 | 30 | 4.8 | 11.3 | 0.00 | 0.15 | 0.15 | 82 | 988.4 |
| 20260505171553 | 17 | 25 | 6.4 | 11.3 | 0.00 | 0.15 | 0.15 | 82 | 988.5 |
| 20260505170549 | 17 | 46 | 6.4 | 12.9 | 0.00 | 0.15 | 0.15 | 83 | 988.5 |
| 20260505165545 | 17 | 38 | 6.4 | 11.3 | 0.00 | 0.15 | 0.15 | 84 | 988.6 |
| 20260505164541 | 17 | 31 | 4.8 | 9.7 | 0.00 | 0.15 | 0.15 | 83 | 988.5 |
| 20260505163537 | 17 | 44 | 6.4 | 12.9 | 0.00 | 0.15 | 0.15 | 83 | 988.6 |
| 20260505162533 | 17 | 42 | 6.4 | 9.7 | 0.00 | 0.15 | 0.15 | 82 | 988.9 |
| 20260505161530 | 17 | 34 | 4.8 | 11.3 | 0.00 | 0.15 | 0.15 | 81 | 988.9 |
| 20260505160526 | 17 | 57 | 9.7 | 17.7 | 0.00 | 0.15 | 0.15 | 80 | 988.9 |
| 20260505152611 | 17 | 37 | 6.4 | 17.7 | 0.00 | 0.15 | 0.15 | 82 | 989.2 |
| 20260505151607 | 17 | 72 | 3.2 | 6.4 | 0.00 | 0.15 | 0.15 | 84 | 989.3 |
| 20260505150603 | 17 | 35 | 6.4 | 11.3 | 0.00 | 0.15 | 0.15 | 83 | 989.4 |
| 20260505140540 | 17 | 32 | 6.4 | 11.3 | 0.00 | 0.15 | 0.15 | 84 | 989.8 |
| 20260505124610 | 17 | 355 | 3.2 | 12.9 | 0.00 | 0.15 | 0.15 | 82 | 990.3 |
| 20260505123607 | 17 | 341 | 4.8 | 12.9 | 0.00 | 0.15 | 0.15 | 83 | 990.3 |
| 20260505122603 | 17 | 35 | 3.2 | 6.4 | 0.00 | 0.15 | 0.15 | 80 | 990.4 |
| 20260505121559 | 17 | 27 | 4.8 | 9.7 | 0.00 | 0.15 | 0.15 | 77 | 990.4 |
| 20260505120555 | 17 | 42 | 8.0 | 17.7 | 0.00 | 0.15 | 0.15 | 78 | 990.5 |
| 20260505115551 | 17 | 27 | 6.4 | 14.5 | 0.00 | 0.15 | 0.15 | 79 | 990.3 |
| 20260505114548 | 17 | 30 | 4.8 | 11.3 | 0.00 | 0.15 | 0.15 | 78 | 990.5 |
| 20260505113544 | 17 | 9 | 4.8 | 9.7 | 0.00 | 0.15 | 0.15 | 80 | 990.5 |
| 20260505112540 | 17 | 321 | 4.8 | 6.4 | 0.00 | 0.15 | 0.15 | 88 | 990.7 |
| 20260505111536 | 16 | 315 | 3.2 | 11.3 | 0.00 | 0.15 | 0.15 | 91 | 990.6 |
| 20260505110532 | 16 | 305 | 3.2 | 6.4 | 0.00 | 0.15 | 0.15 | 90 | 990.8 |
| 20260505101613 | 15 | 16 | 1.6 | 6.4 | 0.00 | 0.15 | 0.15 | 95 | 991.1 |
| 20260505100609 | 15 | 333 | 3.2 | 6.4 | 0.00 | 0.15 | 0.15 | 96 | 991.1 |
| 20260505095606 | 15 | 311 | 4.8 | 6.4 | 0.03 | 0.15 | 0.15 | 96 | 991.1 |
| 20260505094602 | 14 | 47 | 3.2 | 6.4 | 0.03 | 0.15 | 0.15 | 96 | 991.2 |
| 20260505093558 | 14 | 86 | 3.2 | 6.4 | 0.03 | 0.15 | 0.15 | 96 | 991.1 |
| 20260505092554 | 14 | 86 | 3.2 | 6.4 | 0.03 | 0.15 | 0.15 | 97 | 991.0 |
| 20260505091550 | 14 | 0.0 | 3.2 | 0.03 | 0.15 | 0.15 | 97 | 991.1 | |
| 20260505090547 | 14 | 0.0 | 3.2 | 0.03 | 0.15 | 0.15 | 97 | 991.1 | |
| 20260505085543 | 13 | 48 | 1.6 | 3.2 | 0.00 | 0.13 | 0.13 | 97 | 991.1 |
| 20260505084539 | 13 | 37 | 4.8 | 9.7 | 0.00 | 0.13 | 0.13 | 97 | 990.8 |
| 20260505083535 | 14 | 29 | 1.6 | 6.4 | 0.03 | 0.13 | 0.13 | 97 | 991.1 |
| 20260505082532 | 13 | 21 | 3.2 | 6.4 | 0.03 | 0.13 | 0.13 | 97 | 991.1 |
| 20260505081528 | 13 | 16 | 3.2 | 6.4 | 0.03 | 0.13 | 0.13 | 96 | 991.3 |
| 20260505080524 | 13 | 27 | 1.6 | 3.2 | 0.03 | 0.13 | 0.13 | 96 | 991.2 |
| 20260505075520 | 13 | 320 | 1.6 | 3.2 | 0.03 | 0.13 | 0.13 | 96 | 991.3 |
| 20260505074516 | 13 | 299 | 3.2 | 6.4 | 0.05 | 0.13 | 0.13 | 96 | 991.3 |
| 20260505073613 | 14 | 358 | 0.0 | 3.2 | 0.05 | 0.10 | 0.10 | 95 | 991.4 |
| 20260505072609 | 13 | 284 | 3.2 | 6.4 | 0.05 | 0.10 | 0.10 | 95 | 991.6 |
| 20260505071605 | 14 | 237 | 3.2 | 3.2 | 0.05 | 0.10 | 0.10 | 95 | 991.7 |
| 20260505070601 | 14 | 243 | 1.6 | 3.2 | 0.10 | 0.10 | 0.10 | 94 | 991.7 |
| 20260505065558 | 14 | 304 | 0.0 | 3.2 | 0.10 | 0.10 | 0.10 | 94 | 991.6 |
| 20260505064554 | 13 | 315 | 0.0 | 3.2 | 0.05 | 0.05 | 0.05 | 93 | 991.5 |
| 20260505063550 | 13 | 315 | 1.6 | 3.2 | 0.03 | 0.03 | 0.03 | 93 | 991.7 |
| 20260505062546 | 13 | 315 | 1.6 | 3.2 | 0.03 | 0.03 | 0.03 | 92 | 991.6 |
| 20260505061543 | 13 | 280 | 1.6 | 3.2 | 0.03 | 0.03 | 0.03 | 92 | 991.6 |
| 20260505060539 | 13 | 223 | 3.2 | 3.2 | 0.00 | 0.00 | 0.00 | 91 | 991.6 |
| 20260505055535 | 13 | 225 | 1.6 | 3.2 | 0.00 | 0.00 | 0.00 | 90 | 991.5 |
| 20260505054531 | 13 | 325 | 1.6 | 3.2 | 0.00 | 0.00 | 0.00 | 89 | 991.4 |
| 20260505053528 | 15 | 308 | 6.4 | 9.7 | 0.00 | 0.00 | 0.00 | 86 | 991.4 |
| 20260505052524 | 15 | 44 | 3.2 | 6.4 | 0.00 | 0.00 | 0.00 | 84 | 991.1 |
| 20260505051520 | 15 | 58 | 3.2 | 6.4 | 0.00 | 0.00 | 0.00 | 84 | 991.2 |
| 20260505050516 | 14 | 53 | 4.8 | 6.4 | 0.00 | 0.00 | 0.00 | 85 | 991.1 |